GFSSE_925_thetae_297.txt.gz
Theta_e
350 349 346 349 351 350 353 353 353 353 353 353 352 352 352 350 352 352 353 352 350 353 354 353 353 351 348 347 350 351 351 352 346 343 349 346 344 345 346 348 348 350 349
348 345 346 352 352 351 350 352 351 351 352 350 351 353 353 353 353 350 348 350 353 353 353 352 353 351 345 343 345 347 350 347 351 351 350 350 349 345 346 351 350 348 350
349 347 347 350 352 350 350 350 350 352 353 352 352 353 353 353 353 353 353 354 354 354 353 352 351 351 344 343 341 345 345 345 347 348 342 342 348 350 350 349 348 348 348
351 349 348 351 348 350 351 349 350 353 353 352 352 352 351 351 354 354 354 354 354 354 353 353 353 351 335 336 339 343 345 346 347 348 346 343 343 347 348 343 347 346 342
351 347 350 347 350 350 351 350 349 348 348 346 349 352 353 353 354 354 354 354 353 352 350 350 348 341 338 333 336 341 344 345 348 351 349 344 342 348 344 345 346 349 339
348 350 350 350 350 350 350 347 346 349 351 349 347 349 351 350 353 354 353 352 351 350 348 349 348 339 334 339 342 345 346 348 349 346 345 341 343 349 350 350 349 343 338
350 351 351 351 348 348 344 345 348 349 350 353 352 348 346 344 345 344 344 344 343 342 343 344 342 334 331 342 344 344 347 349 348 346 346 342 337 339 342 346 343 339 339
352 351 351 349 347 345 343 349 347 348 350 353 350 340 338 340 340 339 338 337 335 334 335 334 331 326 330 341 341 344 346 348 345 344 335 341 339 335 336 345 343 339 347
351 350 349 349 352 342 341 341 341 338 341 341 333 333 336 336 336 336 335 334 334 334 334 332 331 328 332 338 339 341 342 344 341 337 327 330 333 332 330 331 337 342 337
351 349 350 349 347 336 338 336 337 337 343 343 339 337 337 337 336 335 335 336 336 336 337 337 335 333 334 337 339 340 341 343 342 339 329 329 330 329 329 330 331 334 335
351 349 350 348 344 336 335 338 344 346 347 349 349 349 349 348 347 344 343 342 342 341 342 342 343 340 335 335 337 338 340 342 339 333 331 330 329 329 329 329 330 331 332
352 347 350 350 345 339 337 344 347 351 354 354 350 352 353 352 349 348 349 348 348 348 350 350 349 350 341 347 345 343 344 347 336 338 334 333 332 331 331 331 330 330 331
352 351 345 351 352 348 339 343 348 353 351 353 353 350 351 352 350 351 350 352 351 351 353 351 354 353 347 345 351 349 349 347 337 343 343 341 339 337 336 335 334 332 332
350 349 341 350 351 348 351 345 347 351 346 354 351 350 349 350 354 351 352 350 354 343 338 352 353 352 342 345 341 336 347 346 339 341 343 344 344 344 344 342 341 339 337
349 348 342 348 348 349 351 350 348 348 345 352 346 337 337 345 351 352 350 350 352 350 351 353 354 346 342 344 343 345 344 341 343 344 339 342 341 338 339 342 344 343 343
349 346 352 351 351 348 347 348 345 339 340 348 353 344 347 346 349 352 348 351 350 343 347 350 351 348 340 340 340 341 338 336 341 349 344 338 342 345 343 342 342 342 343
349 348 349 352 350 350 347 350 346 347 347 349 354 350 342 345 347 350 343 352 349 347 348 348 351 347 336 337 344 336 341 341 343 346 344 348 346 345 346 346 345 344 343
352 351 348 351 350 349 347 346 350 351 347 351 351 347 340 340 350 348 349 351 348 343 344 352 352 352 351 346 343 341 336 345 346 346 342 346 348 346 343 339 348 347 345
353 352 349 350 351 348 349 351 353 351 344 348 350 349 347 344 348 346 345 348 346 341 345 355 352 351 348 344 350 349 341 348 350 349 348 348 347 348 341 346 349 348 349
351 352 347 347 350 349 352 354 350 350 349 351 350 351 349 347 346 348 345 347 349 345 348 348 348 349 349 347 350 349 350 348 348 346 343 341 345 349 350 352 352 352 352
350 350 348 350 349 350 351 353 352 352 352 351 352 351 352 351 349 352 350 351 352 354 352 350 348 346 348 350 350 351 351 347 347 348 345 338 343 348 350 353 353 354 351
352 352 348 354 348 351 352 349 353 353 352 352 349 350 350 351 350 354 353 351 356 354 352 350 355 349 349 349 348 351 346 347 347 349 346 343 347 347 347 348 354 355 352
350 349 348 351 348 349 351 352 353 353 354 352 352 350 349 345 348 351 353 355 352 352 350 354 354 355 354 354 351 351 346 347 347 347 344 344 342 344 344 344 344 348 353
352 352 353 350 350 348 350 353 351 352 352 352 350 349 350 350 350 349 348 352 351 353 354 353 355 353 353 353 354 355 353 354 349 346 347 346 347 346 345 343 342 345 340
352 351 351 351 350 349 349 351 352 351 353 352 349 346 343 343 343 349 348 346 350 351 354 353 352 353 354 355 356 355 354 354 353 351 349 349 347 345 343 342 342 343 342
352 353 354 355 354 354 352 350 352 352 351 350 349 348 349 349 345 345 343 342 341 348 347 350 351 351 351 353 354 356 357 357 355 353 346 349 348 352 348 347 343 342 342

GFSSE_925_thetae_303.txt.gz
Theta_e
346 345 348 351 352 352 351 351 351 351 351 351 352 352 353 354 353 353 352 353 350 351 351 354 353 353 351 352 352 351 352 351 351 350 346 346 347 351 350 350 349 348 350
344 346 348 351 352 352 351 350 350 352 351 352 352 352 352 353 353 352 353 353 352 353 353 352 352 351 352 352 351 351 351 351 351 351 350 349 349 350 349 349 349 347 350
346 349 349 350 352 352 352 351 350 349 349 349 350 351 352 352 352 353 353 354 353 353 352 351 352 351 349 352 351 350 351 351 351 350 347 348 349 351 350 349 349 348 347
347 349 349 349 350 350 351 350 351 351 352 350 350 350 350 352 353 353 354 350 351 351 351 350 351 348 344 343 344 345 349 351 347 343 342 346 349 349 349 350 348 346 347
347 349 349 349 350 349 349 350 352 351 351 351 349 351 349 351 353 353 353 353 352 351 350 350 350 343 344 344 344 345 347 350 351 350 343 342 345 345 349 348 347 345 344
348 349 349 350 351 350 349 343 344 339 350 352 350 351 350 351 353 352 350 348 348 346 342 341 339 337 340 340 342 345 347 349 350 350 347 340 337 344 348 348 348 344 344
349 347 350 350 351 351 349 350 351 350 346 348 348 345 349 349 349 346 345 345 344 343 344 341 336 336 340 343 345 345 349 349 347 349 349 340 343 345 348 348 348 347 344
347 350 350 349 350 349 349 351 351 350 347 345 345 344 343 341 341 341 339 339 339 338 339 340 338 339 343 343 343 343 347 348 345 345 344 338 337 344 345 348 344 345 341
350 351 347 345 349 350 350 350 349 350 350 340 341 342 341 341 339 338 337 336 336 335 333 329 334 339 340 341 340 340 342 347 345 346 344 341 334 334 342 342 340 345 343
349 347 344 346 350 351 350 343 344 339 339 339 341 341 341 342 342 340 337 337 337 337 336 334 334 335 336 337 338 339 340 342 343 341 332 339 339 335 337 337 336 337 342
348 345 345 345 343 340 338 338 339 341 341 340 341 342 343 342 341 340 339 339 340 341 341 340 339 339 341 339 337 338 343 341 342 341 339 332 335 335 343 340 334 340 341
348 346 344 341 338 340 343 346 349 350 349 350 350 351 353 352 350 348 348 348 346 348 350 349 348 343 343 346 346 346 345 346 341 339 335 331 331 333 335 336 334 332 336
345 346 342 337 338 342 345 348 350 351 350 348 348 349 350 351 349 349 350 350 349 350 346 350 347 343 340 343 343 345 345 345 345 338 339 334 332 331 332 338 334 336 333
346 342 337 336 339 343 343 347 351 350 348 349 347 348 350 350 350 349 349 351 351 348 346 351 350 343 340 341 343 338 345 344 342 339 338 341 340 337 334 334 335 334 337
345 345 339 338 338 341 343 344 348 348 350 346 346 347 347 348 347 348 349 351 349 349 347 348 345 337 340 337 338 338 343 342 339 339 342 341 341 342 341 339 337 337 335
343 348 345 343 342 346 346 347 346 349 348 341 336 342 345 348 347 345 350 349 347 347 347 347 344 341 337 339 340 339 338 337 339 344 335 339 342 343 345 341 339 340 340
349 342 349 350 349 348 348 348 348 347 346 345 344 344 343 346 347 349 348 345 345 346 349 347 344 339 338 337 341 341 338 338 341 344 344 341 344 345 344 342 340 342 343
349 346 344 346 349 347 346 346 347 350 343 346 348 346 340 347 349 346 346 347 349 349 351 348 348 347 347 345 346 346 344 348 348 348 346 345 345 346 347 347 346 345 343
348 345 342 351 349 347 347 347 352 348 346 347 348 348 347 346 351 347 343 347 350 347 350 352 350 348 347 347 348 348 349 347 349 349 347 346 346 345 344 345 346 346 345
348 348 346 350 350 348 347 349 351 350 348 348 349 350 350 351 348 348 350 349 350 350 349 349 350 349 349 347 348 349 347 347 348 346 346 347 345 343 344 344 344 345 348
348 350 351 350 348 346 347 351 351 350 351 349 350 349 351 350 348 347 350 351 352 351 351 349 350 351 350 348 349 350 349 346 345 345 347 348 347 346 344 345 344 344 347
349 348 349 349 348 346 348 350 350 351 353 349 351 351 351 350 349 349 350 351 352 351 351 349 352 354 353 352 353 349 342 347 345 349 348 349 348 348 348 348 348 345 344
350 349 348 348 348 346 348 350 350 352 350 350 349 349 349 348 348 348 350 350 350 350 349 350 351 353 353 352 352 352 348 346 346 351 350 348 350 346 349 349 348 350 348
350 350 349 348 349 347 346 347 350 352 351 351 349 348 347 347 348 347 345 345 346 346 350 348 350 351 351 351 351 351 352 352 349 349 351 350 350 347 344 345 346 348 349
350 350 350 347 347 349 348 349 349 350 350 349 348 346 344 343 345 347 340 342 343 345 342 341 341 342 342 347 344 349 352 352 351 348 350 349 350 350 348 348 345 343 346
350 350 350 348 349 350 350 351 351 350 350 350 347 343 348 342 339 339 339 339 339 338 338 337 337 336 337 337 337 339 342 347 348 347 346 348 349 350 350 350 348 347 345

GFSSE_925_thetae_306.txt.gz
Theta_e
345 347 349 348 350 350 349 350 350 351 352 352 350 350 350 351 349 348 347 348 350 350 353 354 352 349 351 352 351 349 351 351 351 351 350 350 347 347 348 350 349 350 347
344 346 349 349 351 352 352 352 351 351 350 349 349 350 351 351 352 353 350 352 352 353 352 351 349 350 351 350 350 350 350 347 350 352 351 348 349 348 349 349 346 346 347
345 347 350 351 352 350 349 350 350 350 350 350 352 352 352 352 353 353 353 352 353 352 352 352 351 351 352 351 351 351 350 350 347 345 346 348 351 349 348 348 347 348 349
346 348 350 349 350 349 349 349 350 350 350 351 351 351 352 352 352 353 352 351 351 351 349 350 347 343 347 345 346 348 348 348 346 341 342 346 349 349 348 348 346 348 347
347 349 349 349 348 348 347 348 350 351 351 348 349 351 353 352 351 351 352 351 348 348 350 349 347 345 343 344 345 346 347 350 350 350 344 342 347 349 348 341 342 345 345
348 348 348 348 347 348 349 343 341 351 352 351 351 351 352 351 353 352 350 349 345 344 342 341 342 342 342 342 344 346 347 348 351 350 347 340 340 345 342 344 340 344 343
348 348 347 348 349 341 344 350 346 339 349 348 347 351 351 351 351 350 348 344 340 339 338 339 339 339 344 345 345 345 347 347 347 347 348 347 340 347 349 348 348 342 345
345 349 348 350 344 338 348 350 347 345 345 347 349 350 350 349 346 344 343 342 337 334 334 336 338 341 344 343 343 343 344 345 344 345 348 345 340 346 349 348 345 340 341
347 350 350 345 343 349 350 348 349 349 348 345 346 345 344 342 341 341 338 337 337 337 333 335 339 341 341 341 341 340 340 342 343 342 339 338 336 336 345 349 348 347 346
350 349 345 343 350 348 346 347 345 346 343 343 342 341 341 339 340 339 338 338 338 337 334 334 337 340 340 339 339 339 339 339 340 342 339 330 335 332 335 347 344 343 347
351 348 344 343 344 342 345 347 341 339 338 339 339 339 338 340 339 338 338 339 340 340 338 336 337 338 340 339 338 337 340 341 343 342 342 336 331 333 346 348 337 335 342
349 346 342 339 341 343 348 347 348 348 349 349 349 350 349 349 349 348 348 347 347 348 347 344 346 343 343 344 344 346 344 344 342 338 337 334 331 332 336 347 344 337 339
346 345 339 338 341 345 347 349 350 351 349 349 349 349 350 350 351 349 351 350 349 347 348 350 349 341 340 343 343 341 343 344 342 342 338 339 340 333 334 338 341 343 343
346 341 338 338 340 345 347 348 350 347 348 348 349 351 349 349 349 348 349 348 345 346 346 349 349 347 341 339 342 339 343 343 342 339 338 337 339 340 333 333 337 342 342
345 341 336 338 342 344 344 347 350 349 348 344 346 347 348 347 348 349 348 346 347 347 347 349 349 342 338 338 339 337 340 338 337 340 341 338 342 342 343 344 341 341 341
343 341 336 339 342 342 343 344 346 348 350 341 340 344 347 348 348 347 349 346 346 348 347 347 342 339 338 338 338 343 339 339 340 343 343 343 341 341 343 344 344 341 345
344 342 338 337 338 341 346 346 346 346 347 346 345 339 341 346 350 348 345 345 344 346 348 345 342 339 339 344 341 343 345 345 347 347 348 348 348 347 345 346 346 346 344
345 346 343 342 344 348 348 347 347 346 346 344 346 348 343 346 347 348 345 348 345 346 349 349 348 347 345 344 343 344 346 346 345 347 346 345 344 343 343 344 344 344 346
349 344 346 348 348 348 346 346 347 349 349 344 346 347 347 346 350 346 344 348 348 345 345 349 348 347 347 347 344 343 343 345 346 347 347 347 345 346 344 344 344 345 345
349 349 344 345 348 348 346 346 351 347 344 347 348 348 349 347 349 346 348 349 349 349 349 348 348 349 349 348 348 349 348 346 345 345 346 346 346 347 345 346 346 345 343
349 348 347 342 350 348 349 349 351 349 348 348 348 349 350 349 349 346 349 350 351 350 350 349 350 350 351 348 349 352 350 347 346 345 348 346 347 346 348 348 348 349 347
348 348 345 344 349 350 348 347 351 349 349 349 349 349 350 350 349 349 350 350 349 350 352 350 351 350 352 351 351 349 350 350 345 349 347 348 347 347 345 342 346 347 349
348 348 347 348 349 349 347 349 350 351 351 349 350 349 348 347 348 348 348 348 348 348 350 348 350 349 350 351 351 351 353 352 347 349 348 346 347 347 347 348 342 342 344
348 348 347 349 350 348 347 350 350 351 350 350 349 348 347 347 347 346 344 344 344 345 346 347 348 348 349 349 349 345 349 350 353 354 349 348 346 344 348 349 349 347 344
349 349 349 347 348 349 347 348 350 351 349 349 349 347 343 346 347 343 340 341 341 339 338 338 338 338 338 338 341 342 341 343 344 346 348 346 345 344 346 341 347 350 348
348 349 349 348 347 348 349 348 349 348 350 348 346 344 345 341 340 339 339 338 337 337 334 333 332 331 331 330 330 332 334 340 341 343 343 340 342 344 340 345 339 345 347

GFSSE_925_thetae_312.txt.gz
Theta_e
347 351 348 348 353 352 352 351 352 350 352 351 350 350 352 347 352 353 353 353 354 354 352 353 353 352 350 350 350 351 350 351 348 350 349 346 346 347 347 344 346 346 350
347 351 347 349 351 350 352 351 350 351 352 351 353 353 352 354 353 352 349 353 354 352 353 352 351 352 351 350 351 351 351 351 350 346 345 341 350 349 346 347 347 348 350
349 351 351 348 348 351 349 351 349 352 353 352 353 351 348 354 353 353 353 354 353 353 353 351 351 351 352 351 351 351 350 350 346 344 347 344 344 350 349 344 344 347 349
350 350 350 349 350 351 352 351 351 352 353 353 348 351 353 352 353 353 353 353 353 353 352 352 351 352 348 346 347 351 351 348 346 344 344 343 343 348 348 349 345 347 347
350 350 351 350 351 352 350 350 351 351 351 351 351 352 352 353 353 353 353 351 352 352 352 351 351 348 346 345 346 346 347 347 348 347 345 345 343 345 346 346 344 341 346
349 352 349 351 352 351 349 350 349 351 350 350 352 352 349 353 351 350 348 348 349 349 351 351 348 344 344 345 346 348 348 346 352 346 344 344 345 343 342 339 340 342 342
349 351 352 350 349 347 344 343 349 351 348 349 351 353 353 351 349 348 346 342 342 343 343 344 343 344 345 344 344 342 344 344 345 347 347 345 346 343 349 346 341 340 342
349 349 352 346 338 349 351 339 347 347 347 352 352 352 348 345 343 341 337 336 335 338 341 341 341 344 343 343 342 340 341 346 344 346 346 343 343 348 349 347 341 337 343
348 349 350 340 346 349 351 346 341 343 344 346 345 342 338 334 335 335 334 332 333 335 338 339 342 343 341 341 339 339 341 344 347 343 341 342 330 338 346 346 345 344 344
346 344 342 345 352 351 350 348 349 342 340 337 337 336 335 336 336 335 333 332 332 333 336 340 340 340 339 340 339 339 341 350 347 346 343 340 330 330 338 343 340 339 341
344 343 342 348 350 348 345 344 339 338 336 336 337 337 346 347 349 349 344 335 335 336 337 338 338 339 343 348 345 342 348 349 349 347 345 333 335 332 333 335 334 336 337
342 342 344 342 341 342 341 345 344 343 343 346 350 353 353 353 353 351 348 340 339 338 338 338 339 346 349 348 349 348 348 348 348 347 346 333 336 335 340 336 335 335 336
341 340 340 340 342 342 343 346 346 348 349 353 358 359 358 357 357 355 356 355 357 355 355 354 354 354 351 349 345 346 349 348 346 345 345 338 335 334 337 339 339 341 342
340 339 340 342 347 347 348 348 348 349 353 353 356 358 357 356 357 356 353 355 357 355 357 354 353 356 353 348 346 347 346 344 345 347 343 338 337 338 335 334 337 339 338
339 339 341 346 350 351 353 351 352 352 353 352 353 354 354 355 356 354 353 353 354 352 352 353 354 351 348 346 346 347 346 346 348 350 350 348 341 339 340 340 339 339 340
339 340 344 347 352 352 352 353 352 353 354 352 350 350 351 353 357 355 355 354 353 354 354 353 352 349 349 350 349 349 350 350 351 351 352 352 347 344 342 343 343 344 345
338 341 346 348 348 351 353 353 351 351 350 351 349 351 348 353 357 359 353 352 351 354 356 354 353 352 350 350 351 349 350 348 349 351 353 352 351 348 344 344 344 344 345
340 341 345 343 345 348 350 351 350 350 350 349 347 348 353 352 353 355 352 351 353 351 351 350 349 346 346 343 345 346 348 347 346 347 349 350 352 351 351 346 345 344 344
342 343 346 346 346 347 350 352 352 350 351 348 349 348 352 350 350 354 350 350 355 351 351 350 348 351 346 343 342 340 343 344 344 345 346 347 351 349 350 351 350 350 348
345 344 345 348 349 349 351 354 351 348 347 347 349 349 351 351 353 355 349 352 353 349 350 352 355 350 350 348 349 346 345 344 343 345 345 343 344 347 346 350 351 352 350
349 348 345 347 348 349 352 351 349 347 345 346 350 354 354 355 355 355 351 351 355 353 353 356 354 352 350 350 350 349 348 345 344 344 345 344 343 344 346 347 348 346 348
350 351 351 349 348 351 351 352 350 349 348 348 352 356 356 356 357 356 357 353 355 352 352 353 352 351 349 351 352 350 350 347 348 346 348 347 349 349 348 349 350 352 349
351 351 352 353 352 353 352 353 354 354 354 352 353 354 356 356 355 355 354 351 354 353 352 350 351 351 349 349 353 353 353 353 348 349 351 351 353 346 344 342 350 351 354
350 351 352 354 354 351 352 352 352 351 350 347 350 349 355 355 353 352 352 353 354 352 353 352 352 351 350 351 350 351 352 350 349 348 345 340 336 333 336 339 332 345 353
348 349 351 353 355 354 351 352 353 355 351 350 351 353 354 351 349 346 347 347 348 347 348 348 347 348 347 347 345 342 341 339 343 337 336 332 329 331 333 328 337 331 344
349 349 350 353 356 356 355 354 354 353 352 351 352 353 350 344 340 340 339 339 340 339 340 339 338 338 337 336 333 331 331 332 332 330 330 329 327 326 325 338 330 341 334